Погода в Когалыме

Погода в Когалыме : погода сейчас, прогноз погоды и архив. Всё, что Вы хотите узнать о погоде в Когалыме!

Хотите узнать прогноз погоды в Когалыме? Тогда Вам сюда: Погода в Когалыме

Поиск расширенной информации на нашем сайте:

Другие новости

Новости СМИ2

Главная страница сайта

Новости сайта

03.07.2017

Напоминаем, что на нашем специализированном сайте Метеоцентр.Азия вы можете получить высокодетализированные автоматические прогнозы погоды по пунктам России, СНГ и мира в авиационном формате (включающие направление и скорость ветра, видимость, явления погоды, количество и форму облачности, нижнюю и верхнюю границу облачности).


Погода в Когалыме - сегодня

Время (UTC), дата Ветер
(°,м/с) 
Видим.   Явления Облачность Т
(°С)
Тd
(°С)
f(%) Тe
(°С)
Pmin
(гПа)
dP
(гПа)
Po
(мм)
O2
(г/м3)
Тmin Tmax R s Состояние
почвы
06 13.08.18 230 (ЮЗ) 6{10}  40000 м    6/4 1500 м средняя 
[Sc|Ac trans]
+18.1 +7.5 50 +18  1006.5  0.8  749  282           
09 13.08.18 260 (З) 6{10}  40000 м    6/6 1000 м кучево-дожд. 
[Cb cap]
+18.9 +9.5 54 +20  1007.4  1.1  750  281           
12 13.08.18 220 (ЮЗ) 4{10}  40000 м    6/3 1000 м средняя 
[Sc|Ac trans]
+18.4 +10.8 61 +21  1008.2  0.8  750  281           
18 13.08.18 170 (Ю) 40000 м    3/0 верхняя 
[Ci fib]
+12.9 +10.8 87 +15  1009.1  0.4  751  287           
21 13.08.18 170 (Ю) 40000 м    3/0 верхняя 
[Ci fib]
+12.7 +11.2 91 +16  1009.1  751  287           
00 14.08.18 160 (Ю) 40000 м    4/0 средняя, верхняя 
[Ac trans|Ci fib]
+13 +11.5 91 +16  1008.5  -0.6  750  286           
03 14.08.18 160 (Ю) 6{10}  40000 м    5/0 средняя, верхняя 
[Ac trans|Ci fib]
+17.1 +14.1 83 +24  1007.6  -0.8  750  281  +12.3         
15 14.08.18 160 (Ю) 4{12}  40000 м    5/3 1000 м кучево-дожд., верхняя 
[Cb cap|Ci fib]
+21.4 +16.5 74 +33  1007  0.2  749  276    +26.2       
18 14.08.18 170 (Ю) 6{12}  40000 м    3/0 верхняя 
[Ci fib]
+18.6 +16.3 86 +30  1007.9  0.8  750  279           
21 14.08.18 170 (Ю) 40000 м    5/0 средняя, верхняя 
[Ac trans|Ci fib]
+17.3 +16.3 94 +29  1007.7  -0.2  750  281           
00 15.08.18 160 (Ю) 40000 м    8/3 1000 м средняя 
[Cu med, cong|Ac trans]
+16.9 +16.6 98 +30  1008.1  0.4  750  281           
06 15.08.18 200 (Ю) 40000 м    9/9 450 м кучево-дожд. 
[Cb cap]
+20.3 +16.5 79 +32  1008.7  0.6  751  278           
09 15.08.18 170 (Ю) 40000 м  слаб. морось  8/3 1000 м кучево-дожд., средняя 
[Cb cap|Ac trans]
+22.4 +16.3 68 +33  1007.5    750  276           
12 15.08.18 170 (Ю) 40000 м  гроза без осадков{ливн. осадки}  8/3 600 м кучево-дожд., средняя 
[Cb cap|Ac trans]
+22.8 +18.7 78 +39  1006.5  -1  749  274           
15 15.08.18 190 (Ю) 6{10}  40000 м  гроза без осадков  8/5 1000 м кучево-дожд., средняя 
[Cb cap|Ac trans]
+21.4 +17.3 77 +34  1007.1  0.6  749  276    +24.3  0.0     
21 15.08.18 310 (СЗ) 10 км  слаб. ливневой дождь, в посл. час гроза  10/4 200 м кучево-дожд., средняя 
[Cb cap|Ac As]
+16.3 +16 98 +27  1006.9  -0.1  749  281           
00 16.08.18 350 (С) 40000 м  в посл. час ливневой дождь{гроза}  10/10 240 м 
[Sc]
+14.5 +13.8 96 +22  1008.3  1.3  750  284           
03 16.08.18 320 (СЗ) 5-11{11}  5000 м  гроза, ливневой дождь  10/10 180 м кучево-дожд. 
[Cb cap]
+13.9 +12.8 93 +18  1009.6  1.3  751  285  +13.9    22     
12 16.08.18 360 (С) 40000 м  в посл. час ливневой дождь{гроза}  9/6 540 м кучево-дожд., средняя 
[Cb cap|Ac trans]
+15.7 +13.8 88 +23  1009.3  0.7  751  283           
18 16.08.18 тихо ()   40000 м    3/0 верхняя 
[Ci fib]
+9.5 +9.1 97 +10  1010.4  0.5  752  291           
21 16.08.18 340 (С) 40000 м    8/0 средняя 
[Ac trans]
+9.9 +9.5 97 +12  1009.9  -0.5  751  290           
00 17.08.18 тихо ()   40000 м    8/3 100 м средняя 
[St|Ac trans]
+9.9 +9.9 100 +11  1009.8  -0.1  751  290           
06 17.08.18 070 (В) 40000 м    5/3 600 м верхняя 
[Cu med, cong|Ci ing]
+17.4 +10.5 64 +20  1009.9  -0.1  752  283           
09 17.08.18 050 (СВ) 40000 м    4/3 600 м средняя 
[Cu med, cong|Ac trans]
+18.9 +9.2 53 +20  1009.5  -0.4  751  281           
12 17.08.18 050 (СВ) 40000 м    3/3 1500 м 
[Sc]
+19.3 +7.9 48 +20  1008.8  -0.7  751  281           
Время (UTC), дата Ветер
(°,м/с) 
Видим.   Явления Облачность Т
(°С)
Тd
(°С)
f(%) Тe
(°С)
Pmin
(гПа)
dP
(гПа)
Po
(мм)
O2
(г/м3)
Тmin Tmax R s Состояние
почвы

Для получения пояснительной информации подведите курсор к названию столбца.

ПОГОДА в Когалыме - архив

Всё, что Вы хотите узнать о погоде в Когалыме - удобно и подробно!

Выберите нужную дату (начиная с 1 января 2015* года) и нажмите кнопку "Найти".
Будут отображены архивные сводки погоды по пункту Когалым, начиная с указанной даты.


Отображать данные в формате CSV (для использования в таблицах Excel)


Внимание! Наш архив погоды предназначен исключительно для личного некоммерческого использования в познавательных целях. Если Вам необходимы официальные справки о состоянии погоды (для производственных, юридических, коммерческих и т.п. целей), обращайтесь в органы Росгидромета.

*Примечание: данная дата относится к архиву по метеостанциям СССР (Россия, СНГ, Балтия).
Архив по метеостанциям Зарубежной Европы и Азии (кроме Китая) хранится 10 дней, по другим регионам земного шара (Китай, Африка, Америка, Австралия, Океания) - 1 день.

Когалым - район местоположения метеостанции


Название, широта, долгота, высота метеостанции:
Когалым 62.2°ш. 74.5°д. 67 м над ур. моря [Российская Федерация]

Дополнительная информация

В oтличие oт бoльшинства пoгoдных сайтoв мы публикуем пoдрoбную метеoинфoрмацию в детальнoм прoфессиoнальнoм фoрмате.

Характеристики температуры и влажнoсти вoздуха измеряются на высoте 2 м в тени вдали oт зданий и деревьев.
Скoрoсть ветра измеряется на высoте 10 м (на урoвне рoста челoвека скoрoсть ветра ниже в 1.5-2 раза). Если метеoстанция нахoдится в гoрoде или в лесу, тo скoрoсть ветра занижена на 2-4 м/с пo сравнению с oткрытым местoм. Скoрoсть ветра над акватoриями крупных рек и oзёр, а также на вершинах хoлмoв на 2-5 м/с выше, чем в oбычных услoвиях.
Атмoсфернoе давление в разных тoчках местнoсти мoжет значительнo oтличаться oт давления на метеoстанции, в зависимoсти oт услoвий рельефа (при пoдъёме на 10 м давление пoнижается примернo на 1 мм рт.ст.).